Flag for United Kingdom Weather past 2 weeks in Silverstone, England, United Kingdom

Now
64 °F

Passing clouds.


Feels Like: 64 °F
Forecast: 56 / 66 °F
Wind: 16 mph from Southwest

Location: Cranfield

Current Time: Aug 29, 2014 at 11:41:48 AM

Latest Report: Aug 29, 2014 at 11:20 AM


Visibility: N/A

Pressure: 29.86 "Hg

Humidity: 73%

Dew point: 55 °F

Location of SilverstoneLocation

Historic Weather in Silverstone — Graph

°F

Silverstone temperature yesterday

Maximum temperature yesterday: 70 °F (at 2:20 PM)
Minimum temperature yesterday: 63 °F (at 7:20 AM)
Average temperature yesterday: 66 °F

Past Weeks' High & Low Weather Summary

 TemperatureHumidityPressure
High70 °F (Aug 28, 2:20 PM)100% (Aug 14, 12:50 PM)30.15 "Hg (Aug 14, 12:50 PM)
Low46 °F (Aug 21, 7:20 AM)43% (Aug 19, 3:50 PM)29.59 "Hg (Aug 26, 7:20 AM)
Average61 °F74%29.88 "Hg
* Reported Aug 14 10:20 AM — Aug 29 10:50 AM, Silverstone, Weather by CustomWeather, © 2014

Note: Actual official high and low records may vary slightly from our data, if they occured in-between our weather recording intervals... More about our weather records

Advertising

Silverstone weather history for previous 24 hours

 ConditionsComfort  
Time TempWeatherWind HumidityBarometerVisibility
10:50 AM
Aug 29
63 °FPartly sunny.13 mph83%29.86 "HgN/A
10:20 AM63 °FScattered clouds.12 mph83%29.86 "HgN/A
9:50 AM63 °FScattered clouds.13 mph83%29.86 "HgN/A
9:20 AM61 °FPassing clouds.16 mph88%29.86 "HgN/A
8:50 AM61 °FScattered clouds.16 mph88%29.86 "HgN/A
8:20 AM59 °FScattered clouds.15 mph94%29.86 "HgN/A
7:50 AM59 °FPassing clouds.13 mph94%29.86 "HgN/A
7:20 AM59 °FPassing clouds.15 mph94%29.83 "HgN/A
5:20 PM
Aug 28
64 °FScattered clouds.10 mph78%29.83 "HgN/A
4:50 PM63 °FScattered showers. Scattered clouds.12 mph88%29.83 "HgN/A
4:20 PM63 °FScattered showers. Broken clouds.16 mph88%29.83 "HgN/A
3:50 PM70 °FScattered showers. Scattered clouds.15 mph73%29.80 "HgN/A
3:20 PM70 °FScattered clouds.18 mph73%29.80 "HgN/A
2:50 PM70 °FPassing clouds.17 mph69%29.80 "HgN/A
2:20 PM70 °FPassing clouds.14 mph69%29.83 "HgN/A
1:50 PM68 °FPassing clouds.17 mph73%29.83 "HgN/A
1:20 PM68 °FPassing clouds.14 mph73%29.83 "HgN/A
12:50 PM68 °FScattered clouds.17 mph73%29.83 "HgN/A
12:20 PM66 °FScattered clouds.13 mph78%29.83 "HgN/A
11:50 AM66 °FScattered clouds.13 mph78%29.80 "HgN/A
11:20 AM66 °FScattered clouds.13 mph78%29.80 "HgN/A
Weather by CustomWeather, © 2014

See weather overviewHow to use our weather pages